Clear with few low clouds and few cirrus
Clear with few low clouds and few cirrus
Mixed with some thunderstorm clouds possible
Mixed with some thunderstorm clouds possible
Mixed with some thunderstorm clouds possible
Mixed with some thunderstorm clouds possible
Mixed with few cirrus with some thunderstorm clouds possible
Clear with few low clouds and cirrus
Clear with few low clouds and cirrus
(°C)
28°
28°
29°
29°
29°
29°
30°
30°
30°
30°
30°
30°
29°
29°
28°
28°
27°
27°
(°C)
29°
30°
30°
30°
30°
29°
29°
28°
26°
WSW
WSW
WSW
WSW
WSW
W
WSW
WSW
WSW
(km/h)
12-24
13-26
13-24
13-24
12-27
12-28
11-25
11-24
11-22
(mm)
0
0
0
0
0
0
0
0
0
(%)
8
0
0
0
0
0
0
0
0

Sun elevation

/ 55.6°
sun-icon
UV 5
02:56
20:30
Waxing gibbous moon (104°)
12:51
00:16

METAR for 55.61°N 49.28°E (UWKD)

Time Conditions Temperature/
Dewpoint
Wind Visibility Weather Clouds Pressure Change Raw
VFR 28°C / 18°C 280º variable 250º to 320º 6kt 9700m - Clouds and Visibility OK 1011 No Significant change UWKD 150700Z 28003MPS 250V320 CAVOK 28/18 Q1011 R29/70D NOSIG RMK QFE747/0996
VFR 27°C / 19°C 270º variable 210º to 330º 6kt 9700m - Clouds and Visibility OK 1011 No Significant change UWKD 150630Z 27003MPS 210V330 CAVOK 27/19 Q1011 R29/CLRD70 NOSIG RMK QFE747/0996
VFR 26°C / 19°C 280º variable 210º to 330º 4kt 9700m - Clouds and Visibility OK 1011 No Significant change UWKD 150600Z 28002MPS 210V330 CAVOK 26/19 Q1011 R29/CLRD70 NOSIG RMK QFE747/0997
VFR 25°C / 19°C 300º variable 260º to 330º 4kt 9700m - Clouds and Visibility OK 1011 No Significant change UWKD 150530Z 30002MPS 260V330 CAVOK 25/19 Q1011 R29/CLRD70 NOSIG RMK QFE747/0996
VFR 24°C / 18°C 290º variable 250º to 360º 4kt 9700m - Clouds and Visibility OK 1011 No Significant change UWKD 150500Z 29002MPS 250V360 CAVOK 24/18 Q1011 R29/70D NOSIG RMK QFE747/0996
VFR 22°C / 17°C 300º 2kt 9700m - Clouds and Visibility OK 1011 No Significant change UWKD 150430Z 30001MPS CAVOK 22/17 Q1011 R29/CLRD70 NOSIG RMK QFE747/0996
VFR 22°C / 18°C 2kt 9700m - Clouds and Visibility OK 1011 No Significant change UWKD 150400Z VRB01MPS CAVOK 22/18 Q1011 R29/CLRD70 NOSIG RMK QFE747/0996
VFR 21°C / 18°C 290º 4kt 9700m - Clouds and Visibility OK 1010 No Significant change UWKD 150330Z 29002MPS CAVOK 21/18 Q1010 R29/CLRD70 NOSIG RMK QFE747/0996
VFR 21°C / 18°C variable 0kt 9700m - Clouds and Visibility OK 1010 No Significant change UWKD 150300Z 00000MPS CAVOK 21/18 Q1010 R29/CLRD70 NOSIG RMK QFE747/0996
VFR 21°C / 17°C 2kt 9700m - Clouds and Visibility OK 1010 No Significant change UWKD 150230Z VRB01MPS CAVOK 21/17 Q1010 R29/CLRD70 NOSIG RMK QFE747/0996
VFR 20°C / 17°C 270º 2kt 9700m - Clouds and Visibility OK 1010 No Significant change UWKD 150200Z 27001MPS CAVOK 20/17 Q1010 R29/CLRD70 NOSIG RMK QFE746/0995
VFR 20°C / 17°C 280º 2kt 9700m - Clouds and Visibility OK 1010 No Significant change UWKD 150130Z 28001MPS CAVOK 20/17 Q1010 R29/CLRD70 NOSIG RMK QFE746/0995
VFR 20°C / 17°C 270º 4kt 9700m - Clouds and Visibility OK 1010 No Significant change UWKD 150100Z 27002MPS CAVOK 20/17 Q1010 R29/70D NOSIG RMK QFE746/0995
VFR 20°C / 17°C 2kt 9700m - Clouds and Visibility OK 1010 No Significant change UWKD 150030Z VRB01MPS CAVOK 20/17 Q1010 R29/CLRD70 NOSIG RMK QFE746/0995
VFR 20°C / 17°C 290º 4kt 9700m - Clouds and Visibility OK 1010 No Significant change UWKD 150000Z 29002MPS CAVOK 20/17 Q1010 R29/CLRD70 NOSIG RMK QFE746/0995
VFR 20°C / 17°C 250º 2kt 9700m - Clouds and Visibility OK 1010 No Significant change UWKD 142330Z 25001MPS CAVOK 20/17 Q1010 R29/CLRD70 NOSIG RMK QFE746/0995
VFR 20°C / 17°C 2kt 9700m - Clouds and Visibility OK 1010 No Significant change UWKD 142300Z VRB01MPS CAVOK 20/17 Q1010 R29/CLRD70 NOSIG RMK QFE747/0996
VFR 20°C / 17°C variable 0kt 9700m - Broken Clouds 5000ft 1010 No Significant change UWKD 142230Z 00000MPS 9999 BKN050CB 20/17 Q1010 R29/CLRD70 NOSIG RMK QFE747/0996
MVFR 21°C / 17°C 170º 4kt 9700m Light Showers Rain 3.00mm precipitation Broken Clouds 2500ft 1011 No Significant change UWKD 142200Z 17002MPS 9999 -SHRA BKN025CB 21/17 Q1011 R29/CLRD70 NOSIG RMK QFE747/0996
VFR 21°C / 16°C 200º 4kt 9700m - Clouds and Visibility OK 1010 No Significant change UWKD 142130Z 20002MPS CAVOK 21/16 Q1010 R29/CLRD70 NOSIG RMK QFE747/0996
VFR 21°C / 16°C 190º 2kt 9700m - Clouds and Visibility OK 1010 No Significant change UWKD 142100Z 19001MPS CAVOK 21/16 Q1010 R29/CLRD70 NOSIG RMK QFE746/0995
VFR 21°C / 16°C 170º variable 150º to 210º 4kt 9700m - Clouds and Visibility OK 1010 No Significant change UWKD 142030Z 17002MPS 150V210 CAVOK 21/16 Q1010 R29/CLRD70 NOSIG RMK QFE746/0995
VFR 21°C / 16°C 170º 6kt 9700m - Clouds and Visibility OK 1010 No Significant change UWKD 142000Z 17003MPS CAVOK 21/16 Q1010 R29/70D NOSIG RMK QFE746/0995
VFR 22°C / 16°C 170º 4kt 9700m - Clouds and Visibility OK 1010 No Significant change UWKD 141930Z 17002MPS CAVOK 22/16 Q1010 R29/CLRD70 NOSIG RMK QFE746/0995

VFR

28°C / 18°C

[More]
Wind 280º variable 250º to 320º 6kt
Visibility 9700m
Weather -
Clouds Clouds and Visibility OK
Pressure 1011
Change No Significant change
Raw UWKD 150700Z 28003MPS 250V320 CAVOK 28/18 Q1011 R29/70D NOSIG RMK QFE747/0996

VFR

27°C / 19°C

[More]
Wind 270º variable 210º to 330º 6kt
Visibility 9700m
Weather -
Clouds Clouds and Visibility OK
Pressure 1011
Change No Significant change
Raw UWKD 150630Z 27003MPS 210V330 CAVOK 27/19 Q1011 R29/CLRD70 NOSIG RMK QFE747/0996

VFR

26°C / 19°C

[More]
Wind 280º variable 210º to 330º 4kt
Visibility 9700m
Weather -
Clouds Clouds and Visibility OK
Pressure 1011
Change No Significant change
Raw UWKD 150600Z 28002MPS 210V330 CAVOK 26/19 Q1011 R29/CLRD70 NOSIG RMK QFE747/0997

VFR

25°C / 19°C

[More]
Wind 300º variable 260º to 330º 4kt
Visibility 9700m
Weather -
Clouds Clouds and Visibility OK
Pressure 1011
Change No Significant change
Raw UWKD 150530Z 30002MPS 260V330 CAVOK 25/19 Q1011 R29/CLRD70 NOSIG RMK QFE747/0996

VFR

24°C / 18°C

[More]
Wind 290º variable 250º to 360º 4kt
Visibility 9700m
Weather -
Clouds Clouds and Visibility OK
Pressure 1011
Change No Significant change
Raw UWKD 150500Z 29002MPS 250V360 CAVOK 24/18 Q1011 R29/70D NOSIG RMK QFE747/0996

VFR

22°C / 17°C

[More]
Wind 300º 2kt
Visibility 9700m
Weather -
Clouds Clouds and Visibility OK
Pressure 1011
Change No Significant change
Raw UWKD 150430Z 30001MPS CAVOK 22/17 Q1011 R29/CLRD70 NOSIG RMK QFE747/0996

VFR

22°C / 18°C

[More]
Wind 2kt
Visibility 9700m
Weather -
Clouds Clouds and Visibility OK
Pressure 1011
Change No Significant change
Raw UWKD 150400Z VRB01MPS CAVOK 22/18 Q1011 R29/CLRD70 NOSIG RMK QFE747/0996

VFR

21°C / 18°C

[More]
Wind 290º 4kt
Visibility 9700m
Weather -
Clouds Clouds and Visibility OK
Pressure 1010
Change No Significant change
Raw UWKD 150330Z 29002MPS CAVOK 21/18 Q1010 R29/CLRD70 NOSIG RMK QFE747/0996

VFR

21°C / 18°C

[More]
Wind variable 0kt
Visibility 9700m
Weather -
Clouds Clouds and Visibility OK
Pressure 1010
Change No Significant change
Raw UWKD 150300Z 00000MPS CAVOK 21/18 Q1010 R29/CLRD70 NOSIG RMK QFE747/0996

VFR

21°C / 17°C

[More]
Wind 2kt
Visibility 9700m
Weather -
Clouds Clouds and Visibility OK
Pressure 1010
Change No Significant change
Raw UWKD 150230Z VRB01MPS CAVOK 21/17 Q1010 R29/CLRD70 NOSIG RMK QFE747/0996

VFR

20°C / 17°C

[More]
Wind 270º 2kt
Visibility 9700m
Weather -
Clouds Clouds and Visibility OK
Pressure 1010
Change No Significant change
Raw UWKD 150200Z 27001MPS CAVOK 20/17 Q1010 R29/CLRD70 NOSIG RMK QFE746/0995

VFR

20°C / 17°C

[More]
Wind 280º 2kt
Visibility 9700m
Weather -
Clouds Clouds and Visibility OK
Pressure 1010
Change No Significant change
Raw UWKD 150130Z 28001MPS CAVOK 20/17 Q1010 R29/CLRD70 NOSIG RMK QFE746/0995

VFR

20°C / 17°C

[More]
Wind 270º 4kt
Visibility 9700m
Weather -
Clouds Clouds and Visibility OK
Pressure 1010
Change No Significant change
Raw UWKD 150100Z 27002MPS CAVOK 20/17 Q1010 R29/70D NOSIG RMK QFE746/0995

VFR

20°C / 17°C

[More]
Wind 2kt
Visibility 9700m
Weather -
Clouds Clouds and Visibility OK
Pressure 1010
Change No Significant change
Raw UWKD 150030Z VRB01MPS CAVOK 20/17 Q1010 R29/CLRD70 NOSIG RMK QFE746/0995

VFR

20°C / 17°C

[More]
Wind 290º 4kt
Visibility 9700m
Weather -
Clouds Clouds and Visibility OK
Pressure 1010
Change No Significant change
Raw UWKD 150000Z 29002MPS CAVOK 20/17 Q1010 R29/CLRD70 NOSIG RMK QFE746/0995

VFR

20°C / 17°C

[More]
Wind 250º 2kt
Visibility 9700m
Weather -
Clouds Clouds and Visibility OK
Pressure 1010
Change No Significant change
Raw UWKD 142330Z 25001MPS CAVOK 20/17 Q1010 R29/CLRD70 NOSIG RMK QFE746/0995

VFR

20°C / 17°C

[More]
Wind 2kt
Visibility 9700m
Weather -
Clouds Clouds and Visibility OK
Pressure 1010
Change No Significant change
Raw UWKD 142300Z VRB01MPS CAVOK 20/17 Q1010 R29/CLRD70 NOSIG RMK QFE747/0996

VFR

20°C / 17°C

[More]
Wind variable 0kt
Visibility 9700m
Weather -
Clouds Broken Clouds 5000ft
Pressure 1010
Change No Significant change
Raw UWKD 142230Z 00000MPS 9999 BKN050CB 20/17 Q1010 R29/CLRD70 NOSIG RMK QFE747/0996

MVFR

21°C / 17°C

[More]
Wind 170º 4kt
Visibility 9700m
Weather Light Showers Rain 3.00mm precipitation
Clouds Broken Clouds 2500ft
Pressure 1011
Change No Significant change
Raw UWKD 142200Z 17002MPS 9999 -SHRA BKN025CB 21/17 Q1011 R29/CLRD70 NOSIG RMK QFE747/0996

VFR

21°C / 16°C

[More]
Wind 200º 4kt
Visibility 9700m
Weather -
Clouds Clouds and Visibility OK
Pressure 1010
Change No Significant change
Raw UWKD 142130Z 20002MPS CAVOK 21/16 Q1010 R29/CLRD70 NOSIG RMK QFE747/0996

VFR

21°C / 16°C

[More]
Wind 190º 2kt
Visibility 9700m
Weather -
Clouds Clouds and Visibility OK
Pressure 1010
Change No Significant change
Raw UWKD 142100Z 19001MPS CAVOK 21/16 Q1010 R29/CLRD70 NOSIG RMK QFE746/0995

VFR

21°C / 16°C

[More]
Wind 170º variable 150º to 210º 4kt
Visibility 9700m
Weather -
Clouds Clouds and Visibility OK
Pressure 1010
Change No Significant change
Raw UWKD 142030Z 17002MPS 150V210 CAVOK 21/16 Q1010 R29/CLRD70 NOSIG RMK QFE746/0995

VFR

21°C / 16°C

[More]
Wind 170º 6kt
Visibility 9700m
Weather -
Clouds Clouds and Visibility OK
Pressure 1010
Change No Significant change
Raw UWKD 142000Z 17003MPS CAVOK 21/16 Q1010 R29/70D NOSIG RMK QFE746/0995

VFR

22°C / 16°C

[More]
Wind 170º 4kt
Visibility 9700m
Weather -
Clouds Clouds and Visibility OK
Pressure 1010
Change No Significant change
Raw UWKD 141930Z 17002MPS CAVOK 22/16 Q1010 R29/CLRD70 NOSIG RMK QFE746/0995

TAF for 55.61°N 49.28°E (UWKD)

From till


Maximum Temperature 29ºC on . Minimum Temperature 17ºC on .
From till Wind 290º 6kt. Visibility 9700m. Scattered Clouds 2000ft.
Temporarly from till Wind 35kt. Visibility 3100m. Light Thunderstorm Rain Squalls . Broken Clouds 3000ft.

Raw: TAF UWKD 150458Z 1506/1606 29003MPS 9999 SCT020 TX29/1511Z TN17/1601Z TEMPO 1509/1515 VRB18MPS 3100 -TSRA SQ BKN030CB

Radar and precipitation nowcast for 55.61°N 49.28°E

Drizzle
Light
Moderate
Heavy
Very Heavy
Hail

The location marker is placed on 55.61°N 49.28°E. This animation shows the precipitation radar for the selected time range, as well as a 2h forecast. Orange crosses indicate lightning. Data provided by nowcast.de (available in USA, Europe, Australia). Drizzle or light snow fall might be invisible for the radar. Precipitation intensity is colour coded, ranging from turquoise to red.

Current satellite and rain images for 55.61°N 49.28°E

The location marker is placed on 55.61°N 49.28°E. [More]

The real-time satellite image combines visible light during daytime with infrared radiation during nighttime. At night, the image is not dark as infrared radiation can detect temperature differences. Unfortunately, low clouds and fog are difficult to distinguish from ground temperatures and thus can be almost invisible during the night. Meteosat satellite images for Europe are updated in real-time every 5 minutes. GOES-16/GOES-17 (North & South America) and Himawari (Asia) images update every 10 minutes.

Precipitation is estimated from radar and satellites. Precipitation estimates from satellites are less accurate at night than during daytime.

© 2024 meteoblue, NOAA Satellites GOES-16 and EUMETSAT. Lightning data provided by nowcast.

Back to top
×
Hey there,
seems like you are using an ad blocker.

Advertising is essential to maintain our free website with unique detail and accuracy.

Please whitelist www.meteoblue.com on your ad blocker or consider buying one of our products:

Already have a subscription?
Then please login.